Skip Page Navigation
NASA JPL Caltech
NASA Logo - Jet Propulsion Laboratory + View the NASA Portal
+ Near-Earth Object (NEO) Program
Search JPL
JPL Home Earth Solar System Stars & Galaxies Technology
JPL Solar System Dynamics
BODIES ORBITS EPHEMERIDES TOOLS PHYSICAL DATA DISCOVERY FAQ SITE MAP
JPL Small-Body Database Browser
Search: [ help ]  
4789 Sprattia (1987 UU2)
Classification: Main-belt Asteroid          SPK-ID: 2004789
Ephemeris | Orbit Diagram | Orbital Elements | Physical Parameters | Discovery Circumstances | Close-Approach Data ]

[ hide orbit diagram ]
Orbit Diagram
Note: Make sure you have Java enabled on your browser to see the applet. This applet is provided as a 3D orbit visualization tool. The applet was implemented using 2-body methods, and hence should not be used for determining accurate long-term trajectories (over several years or decades) or planetary encounter circumstances. For accurate long-term ephemerides, please instead use our Horizons system.
Orbit Viewer

Additional Notes: the orbits shown in the applet are color coded. The planets are white lines, and the asteroid/comet is a blue line. The bright white line indicates the portion of the orbit that is above the ecliptic plane, and the darker portion is below the ecliptic plane. Likewise for the asteroid/comet orbit, the light blue indicates the portion above the ecliptic plane, and the dark blue the portion below the ecliptic plane.

Orbit Viewer applet originally written and kindly provided by Osamu Ajiki (AstroArts), and further modified by Ron Baalke (JPL).


Orbital Elements at Epoch 2456400.5 (2013-Apr-18.0) TDB
Reference: JPL 1 (heliocentric ecliptic J2000)
 Element Value Uncertainty (1-sigma)   Units 
e .1241953242605897 7.0268e-08  
a 2.238638368742356 1.4882e-08 AU
q 1.960609950634201 1.5655e-07 AU
i 1.273672229024172 6.2518e-06 deg
node 209.8472829471178 0.00029099 deg
peri 152.3497473097071 0.00029194 deg
M 236.2427586912672 2.7732e-05 deg
tp 2456821.074038255452
(2014-Jun-12.57403826)
9.5681e-05 JED
period 1223.416522304775
3.35
1.2199e-05
3.34e-08
d
yr
n .2942579190624317 2.9342e-09 deg/d
Q 2.51666678685051 1.673e-08 AU
  Orbit Determination Parameters
   # obs. used (total)      1058  
   data-arc span      13504 days (36.97 yr)  
   first obs. used      1976-04-30  
   last obs. used      2013-04-20  
   planetary ephem.      DE405  
   SB-pert. ephem.      SB405-CPV-2  
   condition code      0  
   fit RMS      .57956  
   data source      ORB  
   producer      Otto Matic  
   solution date      2013-Apr-29 13:13:26  

Additional Information
 Earth MOID = .95734 AU 
 T_jup = 3.626 
[ show covariance matrix ]

Ephemeris | Orbit Diagram | Orbital Elements | Physical Parameters | Discovery Circumstances | Close-Approach Data ]

Physical Parameter Table
Parameter Symbol Value Units Sigma Reference Notes
absolute magnitude H 13.9 mag n/a PDS3 (MPC 28112)  

4789 Sprattia (1987 UU2)          Discovered 1987-Oct-20 by Tatum and Balam at Victoria
Reference: DISCOVERY.DBLast Updated: 2003-08-29

[ show close-approach data ]
Alternate Designations
 1987 UU2 = 1976 HE1 
Ephemeris | Orbit Diagram | Orbital Elements | Physical Parameters | Discovery Circumstances | Close-Approach Data ]
ABOUT SSD CREDITS/AWARDS PRIVACY/COPYRIGHT GLOSSARY LINKS
FirstGov 2013-May-20 05:12 UT
(server date/time)  
NASA Home Page
Site Manager:   Donald K. Yeomans
Webmaster  Alan B. Chamberlin